User: anonymous   Login
Location: Newark
(47.3150°N, 5.1150°E)
Time: 03:18:57
(UTC+00:00)
Language:

STARS - Orbit

View from above orbital plane
View from above orbital plane
View from above satellite
View from above satellite

Ground track
Ground track

The orbit data is extracted from the following two-line orbital elements,

1 33498U 09002G   19345.51954207  .00000172  00000-0  30782-4 0  9997
2 33498  98.2853 200.2107 0010364 330.8450  29.2181 14.79062705585993
Epoch (UTC): 11 December 2019 12:28:08
Eccentricity: 0.0010364
inclination: 98.2853°
perigee height: 625 km
apogee height: 639 km
right ascension of ascending node: 200.2107°
argument of perigee: 330.8450°
revolutions per day: 14.79062705
mean anomaly at epoch: 29.2181°
orbit number at epoch: 58599

The dashed part of the orbit path shows where the satellite is in the earth's shadow,  

DLR